Content
SEND FEEDBACK

Daily
Averages
Monthly
Summary
United States of America

DEDEDO, GUAM


Home > North America > United States > Guam
Elevation: 364 feet     Latitude: 13 33N     Longitude: 144 49E

WEATHER
 
SELECT A DAY
Number of Records: 206,799;   Date Range: 1/1/95 - 4/15/14
 
SHARE

PRINT THIS DATA

[ ← Previous Day ]
WEATHER ALMANAC - MAY 6, 2013
[ Next Day → ]
[ °C ]   °F
Weather ElementAverageHighLow
Temperature85.6 °F90 °F (1:54 pm)80.1 °F (11:54 pm)
Dewpoint73.6 °F77 °F (9:18 pm)71.1 °F (3:54 pm)
Humidity68 %85 % (9:54 pm)55 % (2:50 pm)
Barometer29.85 in29.91 in (9:18 pm)29.79 in (4:54 pm)
Wind Speed11.3 mph17.3 mph (1:54 pm)
Wind Gust25.3 mph (2:28 pm)
Weather ElementAverage
Visibility9.8 mi
Wind DirectionENE (78.2 °)

Weather ElementTotal
Precipitation0.25 in
Cooling Degree Days20.1 (Base 65)
Growing Degree Days35.1 (Base 50)
Averaged from 33 records on May 6, 2013
WEATHER CONDITIONS BREAKOUT
WIND DIRECTION BREAKOUT
WEATHER BY HOUR - MAY 6, 2013
[ °C ]   °F
Local TimeTemperatureDewpointHumidityBarometerVisibilityWind DirectionWind SpeedGust SpeedPrecipitationEventsConditions
1:54 AM82.9 °F73.0 °F72 %29.87 in10.0 miEast (90°)8.1 mphPartly Cloudy
2:54 AM82.0 °F73.0 °F74 %29.86 in10.0 miEast (90°)9.2 mphClear
3:54 AM82.0 °F73.0 °F74 %29.85 in10.0 miEast (90°)8.1 mphClear
4:54 AM82.0 °F73.0 °F74 %29.86 in10.0 miEast (90°)8.1 mphClear
5:54 AM82.0 °F73.0 °F74 %29.86 in10.0 miEast (90°)10.4 mphClear
6:54 AM82.9 °F73.0 °F72 %29.86 in10.0 miEast (90°)8.1 mphClear
7:54 AM84.9 °F73.0 °F67 %29.88 in10.0 miEast (80°)12.7 mphPartly Cloudy
8:54 AM87.1 °F72.0 °F61 %29.87 in10.0 miEast (100°)15.0 mphPartly Cloudy
9:54 AM88.0 °F73.0 °F61 %29.87 in10.0 miEast (90°)12.7 mph21.9 mphPartly Cloudy
10:54 AM89.1 °F73.9 °F61 %29.86 in10.0 miEast (100°)13.8 mph20.7 mphScattered Clouds
11:54 AM89.1 °F73.9 °F61 %29.84 in10.0 miEast (90°)13.8 mph21.9 mphMostly Cloudy
12:40 PM87.8 °F73.4 °F62 %29.86 in10.0 miEast (80°)10.4 mph18.4 mphMostly Cloudy
12:54 PM89.1 °F73.0 °F59 %29.82 in10.0 miEast (80°)12.7 mphOvercast
1:54 PM90.0 °F73.0 °F57 %29.81 in10.0 miENE (70°)17.3 mphMostly Cloudy
2:18 PM89.6 °F73.4 °F59 %29.83 in10.0 miENE (70°)15.0 mphMostly Cloudy
2:28 PM89.6 °F73.4 °F59 %29.83 in10.0 miEast (90°)16.1 mph25.3 mphMostly Cloudy
2:50 PM89.6 °F71.6 °F55 %29.83 in10.0 miENE (70°)13.8 mphScattered Clouds
2:54 PM90.0 °F72.0 °F55 %29.80 in10.0 miEast (90°)13.8 mphScattered Clouds
3:22 PM89.6 °F71.6 °F55 %29.83 in10.0 miEast (90°)13.8 mphMostly Cloudy
3:30 PM89.6 °F71.6 °F55 %29.82 in10.0 miEast (80°)12.7 mphScattered Clouds
3:54 PM89.1 °F71.1 °F55 %29.80 in10.0 miEast (80°)15.0 mph21.9 mphScattered Clouds
4:54 PM88.0 °F71.1 °F57 %29.79 in10.0 miEast (80°)13.8 mphPartly Cloudy
5:54 PM87.1 °F73.0 °F63 %29.81 in10.0 miENE (70°)12.7 mphPartly Cloudy
6:54 PM84.9 °F73.9 °F69 %29.83 in10.0 miENE (70°)9.2 mphPartly Cloudy
7:54 PM84.0 °F75.0 °F74 %29.86 in10.0 miEast (80°)6.9 mphScattered Clouds
8:54 PM84.0 °F75.0 °F74 %29.87 in10.0 miENE (60°)6.9 mphMostly Cloudy
9:18 PM82.4 °F77.0 °F84 %29.91 in5.0 miNE (50°)13.8 mph0.01 inRainRain
9:25 PM82.4 °F75.2 °F79 %29.91 in7.0 miEast (80°)10.4 mph0.02 inRainLight Rain
9:54 PM82.0 °F77.0 °F85 %29.89 in10.0 miNE (50°)6.9 mph0.04 inMostly Cloudy
10:54 PM82.0 °F77.0 °F85 %29.89 in10.0 miENE (60°)6.9 mphScattered Clouds
11:34 PM82.4 °F77.0 °F84 %29.91 in10.0 miENE (70°)10.4 mph0.06 inOvercast
11:50 PM80.6 °F75.2 °F84 %29.91 in10.0 miENE (60°)8.1 mph0.06 inOvercast
11:54 PM80.1 °F75.0 °F85 %29.88 in10.0 miNE (50°)6.9 mph0.06 inOvercast
Hourly data recorded from PGUM, located 4.03 miles away from Dededo, Guam







STORIES FROM OUR PARTNERS